Wind_Speed
30 27 26 23 22 24 26 27 25 26 26 29 29 27 28 25 25 26 28 27 26 26 26 24 23 23 24 25 24 23 22 21 20 21 21 21 20 20 20 20 21 21 21 21
32 30 28 28 26 24 26 26 27 29 30 31 31 30 29 28 28 29 30 29 28 27 27 27 27 27 27 27 27 26 25 23 22 22 22 22 22 22 22 22 23 23 24 24
32 29 29 31 29 28 28 28 29 31 32 34 34 35 33 31 33 32 32 31 31 31 30 30 30 30 30 30 29 29 28 27 25 24 23 23 23 24 24 24 24 25 25 26
31 29 32 30 30 32 33 32 31 32 35 37 38 38 38 36 35 34 34 34 33 32 31 31 32 33 32 32 32 31 30 29 28 27 26 26 26 26 26 26 26 27 28 28
30 29 30 29 31 33 34 35 34 34 36 38 38 37 39 40 38 35 34 34 33 33 32 33 34 34 35 35 34 33 32 31 30 30 29 28 29 29 28 29 29 29 30 30
31 29 29 30 33 34 35 36 38 38 39 39 37 38 40 39 37 37 36 35 34 32 33 34 34 35 36 36 35 34 34 33 32 32 32 31 31 32 31 31 32 32 32 32
32 32 32 34 36 36 36 38 38 38 37 37 36 37 39 39 38 38 37 36 36 36 35 35 36 36 36 36 36 36 36 36 34 34 34 33 33 33 34 34 34 35 35 34
33 32 35 38 39 40 39 40 38 36 36 35 36 37 37 39 39 38 37 37 37 37 37 37 37 37 37 37 37 38 38 38 37 36 36 36 36 35 35 36 36 36 36 36
34 36 37 38 39 39 39 39 39 37 37 37 37 37 38 39 40 40 39 38 38 39 39 39 39 39 39 38 38 38 39 39 39 39 38 38 38 38 37 37 37 37 37 37
35 35 37 39 40 39 38 39 38 37 37 37 37 38 39 40 41 41 40 39 39 39 40 40 40 40 40 40 40 40 39 39 39 40 40 40 40 39 38 37 38 38 38 38
36 38 37 38 39 38 38 38 37 37 37 38 39 40 40 41 41 41 41 40 40 40 40 40 40 39 39 40 39 39 39 39 39 40 40 39 40 39 39 38 37 38 38 38
37 38 38 37 38 38 40 39 39 38 38 38 38 39 39 40 41 41 41 41 41 41 41 41 42 41 41 41 40 40 41 40 40 40 40 40 40 40 39 38 38 38 38 39
34 35 36 37 37 38 39 39 39 38 38 37 38 39 40 41 41 42 42 41 41 41 41 41 42 42 42 41 41 41 41 41 41 40 39 40 39 39 40 40 40 40 39 39
33 34 35 35 36 36 36 36 37 37 38 38 39 39 40 40 41 41 41 41 41 40 40 41 41 41 41 41 41 41 41 41 40 39 39 39 40 41 41 41 41 40 40 39
31 32 33 33 33 34 34 34 34 34 35 36 38 38 38 38 39 39 39 40 40 40 39 39 39 40 40 40 40 40 40 40 39 39 39 40 40 41 41 41 41 41 40 39
29 28 28 29 30 31 32 32 33 33 33 34 34 34 35 35 36 36 36 36 36 37 37 37 38 39 40 39 39 39 39 39 39 39 40 40 40 41 41 41 40 40 40 39
26 26 27 28 29 29 30 30 31 31 31 31 31 31 32 33 33 32 33 33 33 33 35 36 37 38 38 39 39 39 39 39 39 39 39 39 39 39 39 39 38 39 40 40
24 24 25 26 27 28 27 28 28 28 28 28 28 29 29 30 30 30 31 31 31 32 33 34 34 35 36 37 37 37 37 37 37 36 36 36 37 37 37 38 38 39 39 38
22 23 23 23 23 24 25 25 24 25 26 26 26 26 27 27 27 28 29 29 30 30 31 31 32 33 34 35 35 35 35 35 34 34 34 35 35 35 36 37 37 37 36 34
20 20 21 21 21 22 22 22 22 22 23 23 23 23 23 24 25 25 26 26 27 28 28 29 30 30 31 32 33 33 32 32 32 32 32 33 33 33 34 34 34 34 33 32
19 19 19 19 19 19 19 20 19 19 19 20 20 21 21 21 22 22 23 24 24 25 27 27 27 27 27 27 28 29 29 29 29 30 30 31 31 30 30 30 30 30 30 30
17 17 17 17 17 17 18 18 18 18 18 18 19 19 19 20 20 21 22 23 23 24 24 24 24 24 25 25 25 26 26 26 27 27 27 27 27 27 27 27 28 28 29 29
15 16 16 16 16 15 16 16 16 16 17 17 17 17 18 19 19 19 19 20 20 20 20 21 22 22 23 23 22 22 21 22 23 24 24 25 26 26 26 26 27 27 28 28
14 14 14 13 13 13 13 13 13 14 14 15 15 16 16 16 16 16 16 16 17 18 19 19 19 20 20 20 21 21 20 21 21 22 23 24 25 26 26 26 26 26 26 26
13 13 12 11 11 11 12 12 12 13 14 14 14 14 14 13 13 13 14 14 15 16 16 17 18 19 20 20 20 20 20 21 21 21 22 23 24 24 23 23 24 25 25 25
11 11 10 10 10 11 11 12 12 12 13 13 13 12 12 12 12 13 13 14 15 15 16 16 17 17 17 18 18 19 19 19 20 21 21 21 22 22 22 23 24 24 24 24
9 9 8 9 9 9 9 10 11 10 11 11 11 12 12 13 13 13 14 14 14 15 15 16 17 17 17 17 17 17 17 18 18 19 19 19 20 20 21 21 21 21 21 22
Wind_Direction
230 229 232 242 244 241 238 233 235 244 249 255 260 257 255 256 258 256 258 259 262 265 268 268 271 275 279 281 283 285 288 290 291 294 295 296 297 296 294 295 298 300 302 305
235 233 233 237 237 242 245 241 239 241 246 249 251 255 255 255 255 256 257 261 262 263 264 267 271 273 276 278 277 279 281 283 283 287 289 291 292 293 293 293 295 297 298 300
240 238 238 238 237 240 243 244 242 243 245 249 249 250 253 255 256 257 261 262 264 265 265 265 269 271 272 273 275 276 277 278 278 281 284 287 288 290 290 290 292 293 294 296
243 242 242 241 241 240 241 241 242 244 245 248 252 254 255 256 255 259 260 260 261 263 263 263 264 267 268 271 271 271 273 275 276 277 280 281 282 284 286 286 287 289 291 293
243 245 247 244 242 238 239 240 241 244 247 250 251 254 256 258 260 259 261 260 259 261 262 263 265 267 270 271 271 270 270 271 272 274 275 278 280 280 283 283 284 286 288 290
240 242 245 244 243 240 239 240 240 243 245 249 251 252 256 261 262 262 260 258 259 262 262 264 266 267 270 271 273 273 271 271 272 273 274 275 277 278 280 282 281 282 286 288
241 243 247 246 246 245 243 244 243 245 246 251 253 254 257 260 262 262 260 259 262 262 263 265 266 266 269 270 271 272 273 272 271 272 274 275 275 276 278 280 281 282 283 287
240 241 245 245 247 247 247 249 247 250 251 253 256 257 258 260 262 263 262 262 263 263 265 266 267 267 269 269 270 271 272 273 274 275 274 275 275 275 275 277 280 282 285 286
238 240 244 245 248 252 252 252 253 254 257 258 259 257 258 259 260 261 261 262 262 263 264 265 265 267 268 269 271 272 272 272 274 275 274 273 273 273 274 276 278 281 284 285
242 245 247 249 252 254 256 256 255 258 257 256 259 260 259 259 261 261 262 263 263 263 265 266 266 267 269 269 270 271 272 272 272 273 274 274 275 277 277 278 279 281 282 284
244 247 249 250 254 256 257 259 263 265 262 261 261 261 262 261 262 261 263 264 264 264 264 264 267 267 269 269 270 271 271 271 272 273 274 275 275 277 277 278 280 281 282 283
247 250 252 256 258 261 261 263 265 266 266 266 264 262 262 262 262 263 264 264 264 264 266 266 266 268 269 268 270 271 271 271 271 272 272 274 276 276 276 277 278 279 281 282
250 253 255 256 259 262 264 265 265 266 266 265 265 264 263 263 263 263 264 265 264 265 266 266 266 267 269 269 269 270 271 271 270 269 271 273 274 276 277 277 277 279 280 281
257 257 257 258 260 263 265 266 266 267 268 267 266 264 264 264 264 264 264 266 266 265 265 266 266 268 270 270 271 271 272 272 271 271 272 273 275 276 277 277 277 279 280 279
259 260 260 259 260 262 265 266 267 268 268 267 266 265 265 264 265 266 266 266 265 265 265 266 267 269 270 270 270 271 272 272 271 272 273 274 275 276 276 276 277 278 278 278
261 261 260 261 262 264 265 267 268 269 268 267 267 266 266 266 267 268 267 266 265 264 264 266 267 269 270 270 270 271 272 272 273 273 273 274 276 277 277 278 277 278 278 278
261 262 265 265 265 265 266 268 269 269 270 270 269 268 267 267 266 266 266 266 265 264 265 267 269 270 270 270 271 271 273 273 272 273 274 274 274 275 276 276 277 278 277 278
261 263 266 267 267 268 269 270 271 271 272 272 272 271 269 268 267 266 266 267 268 268 269 270 271 272 272 272 272 272 273 273 273 273 274 274 274 274 274 274 275 276 276 276
266 268 270 271 271 272 272 271 272 272 271 272 272 272 271 272 271 269 269 268 269 270 271 272 273 274 275 273 272 272 272 273 273 273 272 273 274 274 275 276 277 276 276 277
269 271 272 273 273 274 275 273 273 274 273 274 274 274 273 273 273 272 272 272 273 273 274 275 274 275 276 275 273 273 272 273 274 274 275 275 276 276 277 277 277 278 277 278
272 272 272 275 274 274 274 274 274 275 275 273 274 275 275 275 275 274 274 275 275 276 277 277 277 278 279 278 277 276 274 274 274 275 275 275 276 278 279 279 280 280 280 279
272 273 273 276 277 274 274 274 273 274 275 274 275 277 277 276 275 275 275 276 277 278 279 280 281 281 282 280 280 279 277 276 275 275 275 276 277 279 282 282 282 281 281 281
272 274 274 275 276 276 276 274 273 272 272 275 277 278 277 276 277 277 277 276 277 279 281 283 282 282 284 285 284 282 280 278 276 276 278 280 282 283 283 283 283 283 283 282
274 278 278 276 278 279 278 277 275 274 274 276 278 281 281 280 278 279 281 282 281 282 283 284 284 285 288 289 287 284 281 280 280 280 283 284 285 286 285 285 284 284 285 284
275 276 275 274 277 279 278 278 279 281 282 282 284 285 285 286 287 288 291 293 295 294 294 293 292 291 291 292 291 289 287 285 284 284 286 287 287 287 287 286 287 286 287 286
271 269 269 269 272 272 274 277 279 282 285 287 288 288 288 290 292 293 294 295 296 297 298 300 301 299 296 293 291 291 290 290 290 288 287 288 288 288 287 288 288 288 288 287
264 265 269 269 272 278 282 286 286 285 287 289 292 292 293 293 293 295 297 298 299 301 302 303 304 305 303 302 302 301 299 297 294 294 294 293 294 294 292 291 291 291 291 291
Height
5849 5853 5856 5858 5860 5862 5865 5867 5869 5870 5871 5870 5868 5867 5868 5869 5870 5872 5873 5874 5875 5875 5874 5874 5875 5877 5877 5877 5877 5876 5876 5876 5875 5875 5874 5873 5872 5871 5870 5869 5868 5867 5865 5864
5841 5845 5849 5851 5854 5856 5858 5860 5862 5862 5862 5861 5861 5860 5860 5863 5864 5865 5866 5867 5869 5869 5870 5870 5871 5872 5872 5871 5871 5871 5871 5871 5870 5870 5869 5868 5867 5866 5865 5864 5863 5862 5861 5859
5834 5838 5840 5843 5847 5849 5851 5852 5854 5854 5854 5852 5852 5853 5853 5855 5856 5857 5859 5861 5862 5862 5864 5864 5865 5865 5865 5865 5865 5865 5864 5864 5864 5863 5863 5862 5861 5860 5859 5858 5857 5856 5855 5854
5826 5830 5831 5838 5839 5840 5841 5843 5843 5843 5843 5842 5844 5846 5846 5847 5849 5850 5853 5853 5852 5853 5855 5856 5857 5857 5858 5858 5857 5857 5857 5857 5857 5856 5856 5856 5855 5854 5854 5853 5851 5850 5849 5848
5818 5821 5823 5827 5828 5829 5831 5833 5833 5832 5833 5834 5835 5837 5838 5839 5840 5842 5844 5844 5843 5844 5846 5847 5848 5849 5849 5849 5849 5849 5849 5849 5848 5848 5848 5848 5848 5847 5846 5845 5844 5843 5842 5840
5810 5812 5815 5817 5817 5818 5821 5821 5821 5821 5822 5824 5826 5829 5829 5830 5830 5832 5833 5835 5835 5835 5837 5838 5839 5840 5841 5841 5841 5840 5840 5840 5839 5839 5839 5839 5839 5838 5838 5837 5836 5835 5834 5833
5801 5803 5805 5806 5806 5809 5812 5810 5810 5811 5812 5814 5816 5819 5820 5821 5822 5823 5823 5824 5826 5828 5829 5830 5830 5831 5831 5832 5831 5831 5831 5830 5830 5828 5830 5829 5829 5829 5829 5828 5827 5826 5825 5825
5792 5794 5797 5795 5797 5799 5799 5799 5800 5800 5802 5804 5807 5808 5810 5811 5813 5813 5813 5815 5817 5818 5818 5819 5820 5821 5822 5822 5822 5822 5821 5820 5820 5818 5820 5820 5820 5819 5819 5818 5818 5817 5816 5815
5782 5784 5785 5786 5787 5789 5789 5790 5791 5792 5794 5796 5797 5797 5799 5801 5802 5803 5804 5806 5807 5808 5808 5809 5809 5810 5810 5811 5811 5812 5812 5811 5810 5809 5809 5809 5809 5809 5808 5808 5807 5807 5807 5806
5772 5773 5775 5777 5778 5779 5780 5782 5782 5782 5783 5785 5786 5787 5788 5791 5792 5792 5794 5795 5796 5797 5797 5798 5798 5798 5798 5799 5800 5800 5800 5800 5800 5799 5799 5799 5798 5798 5798 5797 5797 5797 5796 5796
5763 5764 5765 5767 5769 5770 5771 5771 5770 5771 5773 5775 5777 5777 5778 5779 5780 5781 5782 5784 5785 5786 5786 5786 5786 5787 5787 5788 5788 5788 5788 5789 5789 5788 5788 5788 5787 5787 5787 5786 5786 5786 5785 5784
5753 5755 5757 5758 5760 5761 5761 5762 5762 5763 5764 5764 5765 5766 5767 5768 5769 5770 5771 5773 5773 5774 5775 5776 5775 5775 5775 5776 5777 5777 5777 5777 5777 5777 5777 5777 5776 5776 5774 5775 5775 5775 5774 5773
5744 5747 5749 5750 5750 5751 5752 5752 5753 5753 5753 5753 5754 5754 5755 5756 5757 5758 5759 5760 5761 5762 5763 5764 5764 5765 5765 5765 5765 5766 5766 5765 5765 5765 5765 5765 5765 5765 5764 5764 5764 5763 5762 5762
5736 5738 5739 5740 5741 5742 5742 5741 5742 5742 5742 5742 5742 5743 5744 5745 5746 5747 5747 5748 5749 5750 5751 5752 5752 5753 5753 5753 5753 5753 5753 5753 5752 5753 5753 5753 5753 5752 5752 5752 5752 5751 5751 5750
5728 5729 5729 5730 5732 5732 5732 5732 5732 5731 5731 5731 5731 5731 5732 5733 5734 5735 5736 5736 5737 5738 5739 5740 5740 5741 5741 5741 5741 5741 5741 5741 5741 5741 5741 5741 5740 5740 5740 5740 5740 5739 5739 5738
5721 5720 5720 5722 5723 5723 5723 5723 5722 5722 5721 5721 5721 5721 5722 5723 5723 5724 5724 5725 5726 5727 5728 5728 5729 5729 5729 5728 5729 5729 5729 5729 5729 5729 5730 5729 5729 5729 5728 5728 5728 5727 5726 5726
5714 5714 5714 5715 5715 5715 5715 5714 5713 5713 5712 5712 5711 5712 5712 5713 5713 5714 5714 5715 5715 5716 5717 5717 5717 5717 5717 5716 5716 5716 5717 5717 5717 5718 5718 5718 5717 5717 5717 5716 5715 5714 5714 5713
5707 5707 5708 5707 5707 5707 5706 5706 5705 5705 5704 5704 5704 5704 5704 5704 5704 5705 5705 5706 5706 5707 5706 5706 5706 5706 5705 5705 5705 5705 5705 5705 5706 5706 5706 5706 5706 5705 5705 5704 5703 5703 5702 5702
5700 5700 5701 5700 5700 5700 5699 5699 5698 5697 5697 5697 5697 5697 5696 5696 5696 5696 5697 5697 5697 5697 5697 5697 5696 5695 5695 5694 5694 5694 5694 5694 5695 5695 5695 5695 5694 5694 5694 5693 5692 5691 5690 5689
5695 5695 5695 5694 5694 5693 5692 5692 5692 5691 5691 5690 5690 5690 5689 5689 5689 5689 5689 5689 5689 5689 5689 5689 5688 5687 5685 5685 5684 5684 5684 5684 5684 5684 5684 5684 5684 5683 5682 5681 5681 5680 5679 5678
5690 5689 5689 5689 5688 5688 5687 5687 5686 5685 5685 5685 5685 5684 5684 5683 5683 5683 5683 5683 5683 5682 5682 5681 5680 5679 5678 5676 5676 5675 5675 5675 5675 5675 5675 5674 5674 5674 5673 5671 5670 5669 5668 5668
5684 5684 5684 5683 5683 5683 5682 5682 5681 5681 5680 5680 5679 5679 5679 5678 5678 5678 5677 5677 5676 5676 5675 5674 5673 5672 5670 5669 5668 5667 5667 5667 5666 5666 5666 5666 5665 5664 5663 5662 5661 5660 5659 5658
5679 5679 5679 5678 5678 5678 5677 5677 5677 5676 5676 5676 5675 5674 5674 5673 5673 5672 5672 5671 5670 5669 5668 5667 5666 5665 5664 5662 5661 5660 5660 5659 5659 5658 5658 5657 5657 5656 5655 5654 5652 5651 5650 5649
5676 5675 5675 5674 5674 5674 5674 5673 5673 5672 5672 5672 5671 5670 5669 5669 5668 5667 5666 5665 5664 5663 5662 5661 5660 5659 5658 5656 5655 5654 5653 5653 5652 5651 5651 5649 5648 5647 5646 5645 5644 5642 5641 5640
5672 5672 5671 5671 5671 5670 5670 5670 5669 5669 5668 5668 5667 5666 5665 5665 5664 5663 5662 5661 5660 5659 5658 5656 5655 5654 5652 5651 5649 5648 5647 5646 5645 5644 5644 5642 5641 5640 5639 5637 5636 5635 5633 5632
5669 5669 5668 5668 5668 5667 5667 5666 5666 5665 5665 5664 5663 5662 5662 5661 5660 5659 5658 5657 5656 5655 5654 5652 5651 5649 5647 5646 5644 5643 5641 5640 5639 5638 5637 5636 5634 5633 5631 5630 5628 5627 5625 5624
5666 5666 5665 5665 5665 5664 5663 5663 5663 5662 5662 5661 5660 5659 5658 5657 5657 5656 5655 5654 5652 5651 5650 5648 5646 5645 5643 5641 5639 5638 5636 5634 5633 5632 5631 5629 5628 5627 5625 5623 5622 5620 5618 5617